Location: ??????
(30.5519°N, 47.7720°E)
Time: 16:34:13
(UTC+00:00)

USA 267 - Pass Details

Date: 24 January 2021
Orbit: 1099 x 1108 km, 123.0° (Epoch: 02 March)

Event Time Altitude Azimuth Distance (km) Brightness Sun altitude
Exits shadow 16:54:34 51° 340° (NNW) 1,354 3.7 -33.5°
Maximum altitude 16:55:17 54° 317° (NW) 1,320 3.7 -33.7°
Drops below altitude 10° 17:01:35 10° 242° (WSW) 2,953 6.2 -35.0°
Sets 17:04:07 0° 238° (WSW) 3,910 6.9 -35.6°
